Guntersville Observed Data For Previous 48 Hours

Caption
Day and Hour Reservoir Elevation (behind dam)* Tailwater Elevation (below dam)* Average Hourly Discharge*
11/17/2017 1 AM CST 593.93 556.46 40,080
11/17/2017 2 AM CST 593.93 556.44 40,088
11/17/2017 3 AM CST 593.94 556.41 40,080
11/17/2017 4 AM CST 593.96 556.41 40,074
11/17/2017 5 AM CST 593.96 556.39 40,114
11/17/2017 6 AM CST 593.99 556.40 40,088
11/17/2017 7 AM CST 593.98 556.38 40,060
11/17/2017 8 AM CST 593.99 556.36 40,094
11/17/2017 9 AM CST 593.99 556.45 40,120
11/17/2017 10 AM CST 593.99 556.37 40,126
11/17/2017 11 AM CST 593.97 556.33 40,023
11/17/2017 12 PM CST 593.98 556.33 40,023
11/17/2017 1 PM CST 594.00 556.30 40,055
11/17/2017 2 PM CST 594.03 556.31 40,056
11/17/2017 3 PM CST 594.03 556.29 40,028
11/17/2017 4 PM CST 594.06 556.30 40,067
11/17/2017 5 PM CST 594.05 556.31 40,119
11/17/2017 6 PM CST 594.08 556.30 40,108
11/17/2017 7 PM CST 594.11 556.32 40,170
11/17/2017 8 PM CST 594.12 556.41 40,151
11/17/2017 9 PM CST 594.15 556.27 40,144
11/17/2017 10 PM CST 594.12 556.31 40,122
11/17/2017 11 PM CST 594.11 556.27 40,177
11/18/2017 12 AM CST 594.13 556.26 40,194
11/18/2017 1 AM CST 594.11 556.26 40,173
11/18/2017 2 AM CST 594.14 556.23 40,086
11/18/2017 3 AM CST 594.14 556.20 40,134
11/18/2017 4 AM CST 594.14 556.21 40,113
11/18/2017 5 AM CST 594.15 556.21 40,096
11/18/2017 6 AM CST 594.13 556.19 40,130
11/18/2017 7 AM CST 594.11 556.19 40,087
11/18/2017 8 AM CST 594.07 556.18 40,118
11/18/2017 9 AM CST 594.07 556.18 40,074
11/18/2017 10 AM CST 594.06 556.18 40,062
11/18/2017 11 AM CST 594.04 556.16 40,035
11/18/2017 12 PM CST 594.03 556.16 40,060
11/18/2017 1 PM CST 594.01 556.14 40,065
11/18/2017 2 PM CST 594.01 556.18 40,109
11/18/2017 3 PM CST 593.97 556.15 40,125
11/18/2017 4 PM CST 593.96 556.13 40,029
11/18/2017 5 PM CST 593.92 556.19 40,031
11/18/2017 6 PM CST 593.99 556.13 40,033
11/18/2017 7 PM CST 593.81 556.54 40,035
11/18/2017 8 PM CST 593.90 556.40 40,077
11/18/2017 9 PM CST 593.90 556.62 40,006
11/18/2017 10 PM CST 593.99 556.86 39,999
11/18/2017 11 PM CST 594.02 556.85 39,971
11/19/2017 12 AM CST 594.07 556.79 39,989
11/19/2017 1 AM CST 594.11 556.69 40,025
11/19/2017 2 AM CST 594.17 556.63 40,063

Elevations are in feet above sea level. Discharges are in cubic feet per second and are reported at the end of the hour.